TimeMST,TemperatureF,Dew PointF,Humidity,Sea Level PressureIn,VisibilityMPH,Wind Direction,Wind SpeedMPH,Gust SpeedMPH,PrecipitationIn,Events,Conditions,WindDirDegrees,DateUTC
12:53 AM,18.0,10.9,74,30.18,10.0,Variable,3.5,-,N/A,,Clear,0,2012-12-23 07:53:00
1:53 AM,16.0,12.0,84,30.17,10.0,Calm,Calm,-,N/A,,Clear,0,2012-12-23 08:53:00
2:53 AM,16.0,12.0,84,30.17,10.0,NW,3.5,-,N/A,,Clear,320,2012-12-23 09:53:00
3:53 AM,15.1,10.9,84,30.17,9.0,NNE,3.5,-,N/A,,Clear,20,2012-12-23 10:53:00
4:53 AM,15.1,10.9,84,30.19,9.0,Calm,Calm,-,N/A,,Partly Cloudy,0,2012-12-23 11:53:00
5:53 AM,15.1,10.9,84,30.22,8.0,NNW,3.5,-,N/A,,Clear,340,2012-12-23 12:53:00
6:53 AM,16.0,10.9,81,30.23,10.0,ESE,3.5,-,N/A,,Overcast,110,2012-12-23 13:53:00
7:53 AM,17.1,12.0,81,30.25,7.0,ESE,3.5,-,N/A,,Overcast,110,2012-12-23 14:53:00
8:53 AM,19.0,12.9,77,30.29,7.0,ESE,3.5,-,N/A,,Overcast,110,2012-12-23 15:53:00
9:53 AM,21.9,14.0,72,30.28,10.0,SSE,10.4,-,N/A,,Overcast,150,2012-12-23 16:53:00
10:53 AM,27.0,15.1,61,30.25,10.0,ENE,3.5,-,N/A,,Clear,60,2012-12-23 17:53:00
11:53 AM,30.0,14.0,51,30.23,10.0,NNW,3.5,-,N/A,,Partly Cloudy,330,2012-12-23 18:53:00
12:53 PM,32.0,17.1,54,30.18,10.0,Calm,Calm,-,N/A,,Clear,0,2012-12-23 19:53:00
1:53 PM,32.0,18.0,56,30.17,10.0,North,3.5,-,N/A,,Clear,360,2012-12-23 20:53:00
2:53 PM,33.1,19.0,56,30.13,10.0,Calm,Calm,-,N/A,,Clear,0,2012-12-23 21:53:00
3:53 PM,30.9,18.0,59,30.13,10.0,NE,3.5,-,N/A,,Clear,40,2012-12-23 22:53:00
4:53 PM,30.0,18.0,61,30.11,10.0,Calm,Calm,-,N/A,,Clear,0,2012-12-23 23:53:00
5:53 PM,24.1,17.1,75,30.14,8.0,Calm,Calm,-,N/A,,Clear,0,2012-12-24 00:53:00
6:53 PM,23.0,18.0,81,30.15,7.0,SSE,6.9,-,N/A,,Clear,150,2012-12-24 01:53:00
7:53 PM,25.0,19.0,78,30.14,8.0,SE,6.9,-,N/A,,Partly Cloudy,130,2012-12-24 02:53:00
8:53 PM,26.1,19.9,78,30.13,9.0,Calm,Calm,-,N/A,,Scattered Clouds,0,2012-12-24 03:53:00
9:53 PM,25.0,19.9,81,30.12,8.0,WNW,4.6,-,N/A,,Clear,290,2012-12-24 04:53:00
10:53 PM,24.1,19.9,84,30.09,7.0,Calm,Calm,-,N/A,,Mostly Cloudy,0,2012-12-24 05:53:00
11:53 PM,24.1,19.9,84,30.02,6.0,SE,4.6,-,N/A,,Overcast,140,2012-12-24 06:53:00